Time,TemperatureF,DewpointF,PressureIn,WindDirection,WindDirectionDegrees,WindSpeedMPH,WindSpeedGustMPH,Humidity,HourlyPrecipIn,Conditions,Clouds,dailyrainin,SoftwareType,DateUTC
2013-10-15 00:00:00,72.2,53.1,30.01,NW,315,0.0,4.0,51,0.00,,,0.00,WeatherCatV1.02B3,2013-10-15 04:00:00,
2013-10-15 00:05:00,72.0,52.3,30.01,NW,315,1.0,7.0,50,0.00,,,0.00,WeatherCatV1.02B3,2013-10-15 04:05:00,
2013-10-15 00:10:00,72.0,52.3,30.01,NW,315,1.0,7.0,50,0.00,,,0.00,WeatherCatV1.02B3,2013-10-15 04:10:00,
2013-10-15 00:15:00,72.0,52.3,30.01,NW,315,1.0,7.0,50,0.00,,,0.00,WeatherCatV1.02B3,2013-10-15 04:15:00,
2013-10-15 00:20:00,72.0,52.3,30.01,NW,315,1.0,7.0,50,0.00,,,0.00,WeatherCatV1.02B3,2013-10-15 04:20:00,
2013-10-15 00:25:00,72.0,52.3,30.01,NW,315,1.0,7.0,50,0.00,,,0.00,WeatherCatV1.02B3,2013-10-15 04:25:00,
2013-10-15 00:30:00,72.0,52.3,30.01,NW,315,1.0,7.0,50,0.00,,,0.00,WeatherCatV1.02B3,2013-10-15 04:30:00,
2013-10-15 00:35:00,71.8,52.1,30.00,NW,315,0.0,6.0,50,0.00,,,0.00,WeatherCatV1.02B3,2013-10-15 04:35:00,
2013-10-15 00:40:00,71.8,52.1,30.00,NW,315,0.0,6.0,50,0.00,,,0.00,WeatherCatV1.02B3,2013-10-15 04:40:00,
2013-10-15 00:45:00,71.8,52.1,30.00,NW,315,0.0,6.0,50,0.00,,,0.00,WeatherCatV1.02B3,2013-10-15 04:45:00,
2013-10-15 00:50:00,71.8,52.1,30.00,NW,315,0.0,6.0,50,0.00,,,0.00,WeatherCatV1.02B3,2013-10-15 04:50:00,
2013-10-15 00:55:00,71.8,52.1,30.00,NW,315,0.0,6.0,50,0.00,,,0.00,WeatherCatV1.02B3,2013-10-15 04:55:00,
2013-10-15 01:00:00,71.8,52.1,30.00,NW,315,0.0,6.0,50,0.00,,,0.00,WeatherCatV1.02B3,2013-10-15 05:00:00,
2013-10-15 01:05:00,71.7,51.0,29.99,NW,315,1.0,6.0,48,0.00,,,0.00,WeatherCatV1.02B3,2013-10-15 05:05:00,
2013-10-15 01:10:00,71.7,51.0,29.99,NW,315,1.0,6.0,48,0.00,,,0.00,WeatherCatV1.02B3,2013-10-15 05:10:00,
2013-10-15 01:15:00,71.7,51.0,29.99,NW,315,1.0,6.0,48,0.00,,,0.00,WeatherCatV1.02B3,2013-10-15 05:15:00,
2013-10-15 01:20:00,71.7,51.0,29.99,NW,315,1.0,6.0,48,0.00,,,0.00,WeatherCatV1.02B3,2013-10-15 05:20:00,
2013-10-15 01:25:00,71.7,51.0,29.99,NW,315,1.0,6.0,48,0.00,,,0.00,WeatherCatV1.02B3,2013-10-15 05:25:00,
2013-10-15 01:30:00,71.7,51.0,29.99,NW,315,1.0,6.0,48,0.00,,,0.00,WeatherCatV1.02B3,2013-10-15 05:30:00,
2013-10-15 01:35:00,71.4,51.2,29.99,NW,315,0.0,4.0,49,0.00,,,0.00,WeatherCatV1.02B3,2013-10-15 05:35:00,
2013-10-15 01:40:00,71.4,51.2,29.99,NW,315,0.0,4.0,49,0.00,,,0.00,WeatherCatV1.02B3,2013-10-15 05:40:00,
2013-10-15 01:45:00,71.4,51.2,29.99,NW,315,0.0,4.0,49,0.00,,,0.00,WeatherCatV1.02B3,2013-10-15 05:45:00,
2013-10-15 01:50:00,71.4,51.2,29.99,NW,315,0.0,4.0,49,0.00,,,0.00,WeatherCatV1.02B3,2013-10-15 05:50:00,
2013-10-15 01:55:00,71.4,51.2,29.99,NW,315,0.0,4.0,49,0.00,,,0.00,WeatherCatV1.02B3,2013-10-15 05:55:00,
2013-10-15 02:00:00,71.4,51.2,29.99,NW,315,0.0,4.0,49,0.00,,,0.00,WeatherCatV1.02B3,2013-10-15 06:00:00,
2013-10-15 02:05:00,71.2,49.9,29.99,NW,315,0.0,5.0,47,0.00,,,0.00,WeatherCatV1.02B3,2013-10-15 06:05:00,
2013-10-15 02:10:00,71.2,49.9,29.99,NW,315,0.0,5.0,47,0.00,,,0.00,WeatherCatV1.02B3,2013-10-15 06:10:00,
2013-10-15 02:15:00,71.2,49.9,29.99,NW,315,0.0,5.0,47,0.00,,,0.00,WeatherCatV1.02B3,2013-10-15 06:15:00,
2013-10-15 02:20:00,71.2,49.9,29.99,NW,315,0.0,5.0,47,0.00,,,0.00,WeatherCatV1.02B3,2013-10-15 06:20:00,
2013-10-15 02:25:00,71.2,49.9,29.99,NW,315,0.0,5.0,47,0.00,,,0.00,WeatherCatV1.02B3,2013-10-15 06:25:00,
2013-10-15 02:30:00,71.2,49.9,29.99,NW,315,0.0,5.0,47,0.00,,,0.00,WeatherCatV1.02B3,2013-10-15 06:30:00,
2013-10-15 02:35:00,71.7,48.6,29.97,NW,315,2.0,9.0,44,0.00,,,0.00,WeatherCatV1.02B3,2013-10-15 06:35:00,
2013-10-15 02:40:00,71.7,48.6,29.97,NW,315,2.0,9.0,44,0.00,,,0.00,WeatherCatV1.02B3,2013-10-15 06:40:00,
2013-10-15 02:45:00,71.7,48.6,29.97,NW,315,2.0,9.0,44,0.00,,,0.00,WeatherCatV1.02B3,2013-10-15 06:45:00,
2013-10-15 02:50:00,71.7,48.6,29.97,NW,315,2.0,9.0,44,0.00,,,0.00,WeatherCatV1.02B3,2013-10-15 06:50:00,
2013-10-15 02:55:00,71.7,48.6,29.97,NW,315,2.0,9.0,44,0.00,,,0.00,WeatherCatV1.02B3,2013-10-15 06:55:00,
2013-10-15 03:00:00,71.7,48.6,29.97,NW,315,2.0,9.0,44,0.00,,,0.00,WeatherCatV1.02B3,2013-10-15 07:00:00,
2013-10-15 03:05:00,71.6,50.3,29.96,WNW,292,1.0,6.0,47,0.00,,,0.00,WeatherCatV1.02B3,2013-10-15 07:05:00,
2013-10-15 03:10:00,71.6,50.3,29.96,WNW,292,1.0,6.0,47,0.00,,,0.00,WeatherCatV1.02B3,2013-10-15 07:10:00,
2013-10-15 03:15:00,71.6,50.3,29.96,WNW,292,1.0,6.0,47,0.00,,,0.00,WeatherCatV1.02B3,2013-10-15 07:15:00,
2013-10-15 03:20:00,71.6,50.3,29.96,WNW,292,1.0,6.0,47,0.00,,,0.00,WeatherCatV1.02B3,2013-10-15 07:20:00,
2013-10-15 03:25:00,71.6,50.3,29.96,WNW,292,1.0,6.0,47,0.00,,,0.00,WeatherCatV1.02B3,2013-10-15 07:25:00,
2013-10-15 03:30:00,71.6,50.3,29.96,WNW,292,1.0,6.0,47,0.00,,,0.00,WeatherCatV1.02B3,2013-10-15 07:30:00,
2013-10-15 03:35:00,71.1,50.4,29.95,West,270,0.0,7.0,48,0.00,,,0.00,WeatherCatV1.02B3,2013-10-15 07:35:00,
2013-10-15 03:40:00,71.1,50.4,29.95,West,270,0.0,7.0,48,0.00,,,0.00,WeatherCatV1.02B3,2013-10-15 07:40:00,
2013-10-15 03:45:00,71.1,50.4,29.95,West,270,0.0,7.0,48,0.00,,,0.00,WeatherCatV1.02B3,2013-10-15 07:45:00,
2013-10-15 03:50:00,71.1,50.4,29.95,West,270,0.0,7.0,48,0.00,,,0.00,WeatherCatV1.02B3,2013-10-15 07:50:00,
2013-10-15 03:55:00,71.1,50.4,29.95,West,270,0.0,7.0,48,0.00,,,0.00,WeatherCatV1.02B3,2013-10-15 07:55:00,
2013-10-15 04:00:00,71.1,50.4,29.95,West,270,0.0,7.0,48,0.00,,,0.00,WeatherCatV1.02B3,2013-10-15 08:00:00,
2013-10-15 04:05:00,70.9,48.5,29.95,West,270,2.0,12.0,45,0.00,,,0.00,WeatherCatV1.02B3,2013-10-15 08:05:00,
2013-10-15 04:10:00,70.9,48.5,29.95,West,270,2.0,12.0,45,0.00,,,0.00,WeatherCatV1.02B3,2013-10-15 08:10:00,
2013-10-15 04:15:00,70.9,48.5,29.95,West,270,2.0,12.0,45,0.00,,,0.00,WeatherCatV1.02B3,2013-10-15 08:15:00,
2013-10-15 04:20:00,70.9,48.5,29.95,West,270,2.0,12.0,45,0.00,,,0.00,WeatherCatV1.02B3,2013-10-15 08:20:00,
2013-10-15 04:25:00,70.9,48.5,29.95,West,270,2.0,12.0,45,0.00,,,0.00,WeatherCatV1.02B3,2013-10-15 08:25:00,
2013-10-15 04:30:00,70.9,48.5,29.95,West,270,2.0,12.0,45,0.00,,,0.00,WeatherCatV1.02B3,2013-10-15 08:30:00,
2013-10-15 04:35:00,71.1,48.1,29.96,WSW,248,2.0,11.0,44,0.00,,,0.00,WeatherCatV1.02B3,2013-10-15 08:35:00,
2013-10-15 04:40:00,71.1,48.1,29.96,WSW,248,2.0,11.0,44,0.00,,,0.00,WeatherCatV1.02B3,2013-10-15 08:40:00,
2013-10-15 04:45:00,71.1,48.1,29.96,WSW,248,2.0,11.0,44,0.00,,,0.00,WeatherCatV1.02B3,2013-10-15 08:45:00,
2013-10-15 04:50:00,71.1,48.1,29.96,WSW,248,2.0,11.0,44,0.00,,,0.00,WeatherCatV1.02B3,2013-10-15 08:50:00,
2013-10-15 04:55:00,71.1,48.1,29.96,WSW,248,2.0,11.0,44,0.00,,,0.00,WeatherCatV1.02B3,2013-10-15 08:55:00,
2013-10-15 05:00:00,71.1,48.1,29.96,WSW,248,2.0,11.0,44,0.00,,,0.00,WeatherCatV1.02B3,2013-10-15 09:00:00,
2013-10-15 05:05:00,71.0,48.0,29.96,WSW,248,3.0,11.0,44,0.00,,,0.00,WeatherCatV1.02B3,2013-10-15 09:05:00,
2013-10-15 05:10:00,71.0,48.0,29.96,WSW,248,3.0,11.0,44,0.00,,,0.00,WeatherCatV1.02B3,2013-10-15 09:10:00,
2013-10-15 05:15:00,71.0,48.0,29.96,WSW,248,3.0,11.0,44,0.00,,,0.00,WeatherCatV1.02B3,2013-10-15 09:15:00,
2013-10-15 05:20:00,71.0,48.0,29.96,WSW,248,3.0,11.0,44,0.00,,,0.00,WeatherCatV1.02B3,2013-10-15 09:20:00,
2013-10-15 05:25:00,71.0,48.0,29.96,WSW,248,3.0,11.0,44,0.00,,,0.00,WeatherCatV1.02B3,2013-10-15 09:25:00,
2013-10-15 05:30:00,71.0,48.0,29.96,WSW,248,3.0,11.0,44,0.00,,,0.00,WeatherCatV1.02B3,2013-10-15 09:30:00,
2013-10-15 05:35:00,70.9,47.3,29.96,WSW,248,3.0,9.0,43,0.00,,,0.00,WeatherCatV1.02B3,2013-10-15 09:35:00,
2013-10-15 05:40:00,70.9,47.3,29.96,WSW,248,3.0,9.0,43,0.00,,,0.00,WeatherCatV1.02B3,2013-10-15 09:40:00,
2013-10-15 05:45:00,70.9,47.3,29.96,WSW,248,3.0,9.0,43,0.00,,,0.00,WeatherCatV1.02B3,2013-10-15 09:45:00,
2013-10-15 05:50:00,70.9,47.3,29.96,WSW,248,3.0,9.0,43,0.00,,,0.00,WeatherCatV1.02B3,2013-10-15 09:50:00,
2013-10-15 05:55:00,70.9,47.3,29.96,WSW,248,3.0,9.0,43,0.00,,,0.00,WeatherCatV1.02B3,2013-10-15 09:55:00,
2013-10-15 06:00:00,70.9,47.3,29.96,WSW,248,3.0,9.0,43,0.00,,,0.00,WeatherCatV1.02B3,2013-10-15 10:00:00,
2013-10-15 06:05:00,70.8,46.6,29.96,WSW,248,3.0,10.0,42,0.00,,,0.00,WeatherCatV1.02B3,2013-10-15 10:05:00,
2013-10-15 06:10:00,70.8,46.6,29.96,WSW,248,3.0,10.0,42,0.00,,,0.00,WeatherCatV1.02B3,2013-10-15 10:10:00,
2013-10-15 06:15:00,70.8,46.6,29.96,WSW,248,3.0,10.0,42,0.00,,,0.00,WeatherCatV1.02B3,2013-10-15 10:15:00,
2013-10-15 06:20:00,70.8,46.6,29.96,WSW,248,3.0,10.0,42,0.00,,,0.00,WeatherCatV1.02B3,2013-10-15 10:20:00,
2013-10-15 06:25:00,70.8,46.6,29.96,WSW,248,3.0,10.0,42,0.00,,,0.00,WeatherCatV1.02B3,2013-10-15 10:25:00,
2013-10-15 06:30:00,70.8,46.6,29.96,WSW,248,3.0,10.0,42,0.00,,,0.00,WeatherCatV1.02B3,2013-10-15 10:30:00,
2013-10-15 06:35:00,70.7,45.8,29.96,WSW,248,3.0,11.0,41,0.00,,,0.00,WeatherCatV1.02B3,2013-10-15 10:35:00,
2013-10-15 06:40:00,70.7,45.8,29.96,WSW,248,3.0,11.0,41,0.00,,,0.00,WeatherCatV1.02B3,2013-10-15 10:40:00,
2013-10-15 06:45:00,70.7,45.8,29.96,WSW,248,3.0,11.0,41,0.00,,,0.00,WeatherCatV1.02B3,2013-10-15 10:45:00,
2013-10-15 06:50:00,70.7,45.8,29.96,WSW,248,3.0,11.0,41,0.00,,,0.00,WeatherCatV1.02B3,2013-10-15 10:50:00,
2013-10-15 06:55:00,70.7,45.8,29.96,WSW,248,3.0,11.0,41,0.00,,,0.00,WeatherCatV1.02B3,2013-10-15 10:55:00,
2013-10-15 07:00:00,70.6,45.8,29.97,WSW,248,2.0,9.0,41,0.00,,,0.00,WeatherCatV1.02B3,2013-10-15 11:00:00,
2013-10-15 07:05:00,70.6,45.8,29.97,WSW,248,2.0,9.0,41,0.00,,,0.00,WeatherCatV1.02B3,2013-10-15 11:05:00,
2013-10-15 07:10:00,70.6,45.8,29.97,WSW,248,2.0,9.0,41,0.00,,,0.00,WeatherCatV1.02B3,2013-10-15 11:10:00,
2013-10-15 07:15:00,70.6,45.8,29.97,WSW,248,2.0,9.0,41,0.00,,,0.00,WeatherCatV1.02B3,2013-10-15 11:15:00,
2013-10-15 07:20:00,70.6,45.8,29.97,WSW,248,2.0,9.0,41,0.00,,,0.00,WeatherCatV1.02B3,2013-10-15 11:20:00,
2013-10-15 07:25:00,70.6,45.8,29.97,WSW,248,2.0,9.0,41,0.00,,,0.00,WeatherCatV1.02B3,2013-10-15 11:25:00,
2013-10-15 07:30:00,70.7,45.8,29.97,WSW,248,2.0,7.0,41,0.00,,,0.00,WeatherCatV1.02B3,2013-10-15 11:30:00,
2013-10-15 07:35:00,70.7,45.8,29.97,WSW,248,2.0,7.0,41,0.00,,,0.00,WeatherCatV1.02B3,2013-10-15 11:35:00,
2013-10-15 07:40:00,70.7,45.8,29.97,WSW,248,2.0,7.0,41,0.00,,,0.00,WeatherCatV1.02B3,2013-10-15 11:40:00,
2013-10-15 07:45:00,70.7,45.8,29.97,WSW,248,2.0,7.0,41,0.00,,,0.00,WeatherCatV1.02B3,2013-10-15 11:45:00,
2013-10-15 07:50:00,70.7,45.8,29.97,WSW,248,2.0,7.0,41,0.00,,,0.00,WeatherCatV1.02B3,2013-10-15 11:50:00,
2013-10-15 07:55:00,70.7,45.8,29.97,WSW,248,2.0,7.0,41,0.00,,,0.00,WeatherCatV1.02B3,2013-10-15 11:55:00,
2013-10-15 08:00:00,70.7,45.8,29.97,WSW,248,2.0,7.0,41,0.00,,,0.00,WeatherCatV1.02B3,2013-10-15 12:00:00,
2013-10-15 08:05:00,70.8,45.3,29.98,WSW,248,2.0,9.0,40,0.00,,,0.00,WeatherCatV1.02B3,2013-10-15 12:05:00,
2013-10-15 08:10:00,70.8,45.3,29.98,WSW,248,2.0,9.0,40,0.00,,,0.00,WeatherCatV1.02B3,2013-10-15 12:10:00,
2013-10-15 08:15:00,70.8,45.3,29.98,WSW,248,2.0,9.0,40,0.00,,,0.00,WeatherCatV1.02B3,2013-10-15 12:15:00,
2013-10-15 08:20:00,70.8,45.3,29.98,WSW,248,2.0,9.0,40,0.00,,,0.00,WeatherCatV1.02B3,2013-10-15 12:20:00,
2013-10-15 08:25:00,70.8,45.3,29.98,WSW,248,2.0,9.0,40,0.00,,,0.00,WeatherCatV1.02B3,2013-10-15 12:25:00,
2013-10-15 08:30:00,70.8,45.3,29.98,WSW,248,2.0,9.0,40,0.00,,,0.00,WeatherCatV1.02B3,2013-10-15 12:30:00,
2013-10-15 08:35:00,71.1,45.5,29.98,WSW,248,3.0,9.0,40,0.00,,,0.00,WeatherCatV1.02B3,2013-10-15 12:35:00,
2013-10-15 08:40:00,71.1,45.5,29.98,WSW,248,3.0,9.0,40,0.00,,,0.00,WeatherCatV1.02B3,2013-10-15 12:40:00,
2013-10-15 08:45:00,71.1,45.5,29.98,WSW,248,3.0,9.0,40,0.00,,,0.00,WeatherCatV1.02B3,2013-10-15 12:45:00,
2013-10-15 08:50:00,71.1,45.5,29.98,WSW,248,3.0,9.0,40,0.00,,,0.00,WeatherCatV1.02B3,2013-10-15 12:50:00,
2013-10-15 08:55:00,71.1,45.5,29.98,WSW,248,3.0,9.0,40,0.00,,,0.00,WeatherCatV1.02B3,2013-10-15 12:55:00,
2013-10-15 09:00:00,71.1,45.5,29.98,WSW,248,3.0,9.0,40,0.00,,,0.00,WeatherCatV1.02B3,2013-10-15 13:00:00,
2013-10-15 09:05:00,71.5,45.2,29.99,WSW,248,2.0,9.0,39,0.00,,,0.00,WeatherCatV1.02B3,2013-10-15 13:05:00,
2013-10-15 09:10:00,71.5,45.2,29.99,WSW,248,2.0,9.0,39,0.00,,,0.00,WeatherCatV1.02B3,2013-10-15 13:10:00,
2013-10-15 09:15:00,71.5,45.2,29.99,WSW,248,2.0,9.0,39,0.00,,,0.00,WeatherCatV1.02B3,2013-10-15 13:15:00,
2013-10-15 09:20:00,71.5,45.2,29.99,WSW,248,2.0,9.0,39,0.00,,,0.00,WeatherCatV1.02B3,2013-10-15 13:20:00,
2013-10-15 09:25:00,71.5,45.2,29.99,WSW,248,2.0,9.0,39,0.00,,,0.00,WeatherCatV1.02B3,2013-10-15 13:25:00,
2013-10-15 09:30:00,71.5,45.2,29.99,WSW,248,2.0,9.0,39,0.00,,,0.00,WeatherCatV1.02B3,2013-10-15 13:30:00,
2013-10-15 09:35:00,71.9,45.6,30.00,WSW,248,2.0,9.0,39,0.00,,,0.00,WeatherCatV1.02B3,2013-10-15 13:35:00,
2013-10-15 09:40:00,71.9,45.6,30.00,WSW,248,2.0,9.0,39,0.00,,,0.00,WeatherCatV1.02B3,2013-10-15 13:40:00,
2013-10-15 09:45:00,71.9,45.6,30.00,WSW,248,2.0,9.0,39,0.00,,,0.00,WeatherCatV1.02B3,2013-10-15 13:45:00,
2013-10-15 09:50:00,71.9,45.6,30.00,WSW,248,2.0,9.0,39,0.00,,,0.00,WeatherCatV1.02B3,2013-10-15 13:50:00,
2013-10-15 09:55:00,71.9,45.6,30.00,WSW,248,2.0,9.0,39,0.00,,,0.00,WeatherCatV1.02B3,2013-10-15 13:55:00,
2013-10-15 10:00:00,71.9,45.6,30.00,WSW,248,2.0,9.0,39,0.00,,,0.00,WeatherCatV1.02B3,2013-10-15 14:00:00,
2013-10-15 10:05:00,72.4,46.0,30.00,SW,225,2.0,10.0,39,0.00,,,0.00,WeatherCatV1.02B3,2013-10-15 14:05:00,
2013-10-15 10:10:00,72.4,46.0,30.00,SW,225,2.0,10.0,39,0.00,,,0.00,WeatherCatV1.02B3,2013-10-15 14:10:00,
2013-10-15 10:15:00,72.4,46.0,30.00,SW,225,2.0,10.0,39,0.00,,,0.00,WeatherCatV1.02B3,2013-10-15 14:15:00,
2013-10-15 10:20:00,72.4,46.0,30.00,SW,225,2.0,10.0,39,0.00,,,0.00,WeatherCatV1.02B3,2013-10-15 14:20:00,
2013-10-15 10:25:00,72.4,46.0,30.00,SW,225,2.0,10.0,39,0.00,,,0.00,WeatherCatV1.02B3,2013-10-15 14:25:00,
2013-10-15 10:30:00,72.4,46.0,30.00,SW,225,2.0,10.0,39,0.00,,,0.00,WeatherCatV1.02B3,2013-10-15 14:30:00,
2013-10-15 10:35:00,72.8,47.1,30.00,WSW,248,3.0,11.0,40,0.00,,,0.00,WeatherCatV1.02B3,2013-10-15 14:35:00,
2013-10-15 10:40:00,72.8,47.1,30.00,WSW,248,3.0,11.0,40,0.00,,,0.00,WeatherCatV1.02B3,2013-10-15 14:40:00,
2013-10-15 10:45:00,72.8,47.1,30.00,WSW,248,3.0,11.0,40,0.00,,,0.00,WeatherCatV1.02B3,2013-10-15 14:45:00,
2013-10-15 10:50:00,72.8,47.1,30.00,WSW,248,3.0,11.0,40,0.00,,,0.00,WeatherCatV1.02B3,2013-10-15 14:50:00,
2013-10-15 10:55:00,72.8,47.1,30.00,WSW,248,3.0,11.0,40,0.00,,,0.00,WeatherCatV1.02B3,2013-10-15 14:55:00,
2013-10-15 11:00:00,72.8,47.1,30.00,WSW,248,3.0,11.0,40,0.00,,,0.00,WeatherCatV1.02B3,2013-10-15 15:00:00,
2013-10-15 11:05:00,73.2,48.1,30.00,WSW,248,3.0,11.0,41,0.00,,,0.00,WeatherCatV1.02B3,2013-10-15 15:05:00,
2013-10-15 11:10:00,73.2,48.1,30.00,WSW,248,3.0,11.0,41,0.00,,,0.00,WeatherCatV1.02B3,2013-10-15 15:10:00,
2013-10-15 11:15:00,73.2,48.1,30.00,WSW,248,3.0,11.0,41,0.00,,,0.00,WeatherCatV1.02B3,2013-10-15 15:15:00,
2013-10-15 11:20:00,73.2,48.1,30.00,WSW,248,3.0,11.0,41,0.00,,,0.00,WeatherCatV1.02B3,2013-10-15 15:20:00,
2013-10-15 11:25:00,73.2,48.1,30.00,WSW,248,3.0,11.0,41,0.00,,,0.00,WeatherCatV1.02B3,2013-10-15 15:25:00,
2013-10-15 11:30:00,73.8,50.5,29.99,WSW,248,3.0,10.0,44,0.00,,,0.00,WeatherCatV1.02B3,2013-10-15 15:30:00,
2013-10-15 11:35:00,73.8,50.5,29.99,WSW,248,3.0,10.0,44,0.00,,,0.00,WeatherCatV1.02B3,2013-10-15 15:35:00,
2013-10-15 11:40:00,73.8,50.5,29.99,WSW,248,3.0,10.0,44,0.00,,,0.00,WeatherCatV1.02B3,2013-10-15 15:40:00,
2013-10-15 11:45:00,73.8,50.5,29.99,WSW,248,3.0,10.0,44,0.00,,,0.00,WeatherCatV1.02B3,2013-10-15 15:45:00,
2013-10-15 11:50:00,73.8,50.5,29.99,WSW,248,3.0,10.0,44,0.00,,,0.00,WeatherCatV1.02B3,2013-10-15 15:50:00,
2013-10-15 11:55:00,73.8,50.5,29.99,WSW,248,3.0,10.0,44,0.00,,,0.00,WeatherCatV1.02B3,2013-10-15 15:55:00,
2013-10-15 12:00:00,74.5,52.3,29.98,WSW,248,3.0,9.0,46,0.00,,,0.00,WeatherCatV1.02B3,2013-10-15 16:00:00,
2013-10-15 12:05:00,74.5,52.3,29.98,WSW,248,3.0,9.0,46,0.00,,,0.00,WeatherCatV1.02B3,2013-10-15 16:05:00,
2013-10-15 12:10:00,74.5,52.3,29.98,WSW,248,3.0,9.0,46,0.00,,,0.00,WeatherCatV1.02B3,2013-10-15 16:10:00,
2013-10-15 12:15:00,74.5,52.3,29.98,WSW,248,3.0,9.0,46,0.00,,,0.00,WeatherCatV1.02B3,2013-10-15 16:15:00,
2013-10-15 12:20:00,74.5,52.3,29.98,WSW,248,3.0,9.0,46,0.00,,,0.00,WeatherCatV1.02B3,2013-10-15 16:20:00,
2013-10-15 12:25:00,74.5,52.3,29.98,WSW,248,3.0,9.0,46,0.00,,,0.00,WeatherCatV1.02B3,2013-10-15 16:25:00,
2013-10-15 12:30:00,75.1,54.6,29.97,WSW,248,2.0,7.0,49,0.00,,,0.00,WeatherCatV1.02B3,2013-10-15 16:30:00,
2013-10-15 12:35:00,75.1,54.6,29.97,WSW,248,2.0,7.0,49,0.00,,,0.00,WeatherCatV1.02B3,2013-10-15 16:35:00,
2013-10-15 12:40:00,75.1,54.6,29.97,WSW,248,2.0,7.0,49,0.00,,,0.00,WeatherCatV1.02B3,2013-10-15 16:40:00,
2013-10-15 12:45:00,75.1,54.6,29.97,WSW,248,2.0,7.0,49,0.00,,,0.00,WeatherCatV1.02B3,2013-10-15 16:45:00,
2013-10-15 12:50:00,75.1,54.6,29.97,WSW,248,2.0,7.0,49,0.00,,,0.00,WeatherCatV1.02B3,2013-10-15 16:50:00,
2013-10-15 12:55:00,75.1,54.6,29.97,WSW,248,2.0,7.0,49,0.00,,,0.00,WeatherCatV1.02B3,2013-10-15 16:55:00,
2013-10-15 13:00:00,76.1,58.2,29.96,WSW,248,2.0,9.0,54,0.00,,,0.00,WeatherCatV1.02B3,2013-10-15 17:00:00,
2013-10-15 13:05:00,76.1,58.2,29.96,WSW,248,2.0,9.0,54,0.00,,,0.00,WeatherCatV1.02B3,2013-10-15 17:05:00,
2013-10-15 13:10:00,76.1,58.2,29.96,WSW,248,2.0,9.0,54,0.00,,,0.00,WeatherCatV1.02B3,2013-10-15 17:10:00,
2013-10-15 13:15:00,76.1,58.2,29.96,WSW,248,2.0,9.0,54,0.00,,,0.00,WeatherCatV1.02B3,2013-10-15 17:15:00,
2013-10-15 13:20:00,76.1,58.2,29.96,WSW,248,2.0,9.0,54,0.00,,,0.00,WeatherCatV1.02B3,2013-10-15 17:20:00,
2013-10-15 13:25:00,76.1,58.2,29.96,WSW,248,2.0,9.0,54,0.00,,,0.00,WeatherCatV1.02B3,2013-10-15 17:25:00,
2013-10-15 13:30:00,76.6,59.2,29.96,SW,225,1.0,6.0,55,0.00,,,0.00,WeatherCatV1.02B3,2013-10-15 17:30:00,
2013-10-15 13:35:00,76.6,59.2,29.96,SW,225,1.0,6.0,55,0.00,,,0.00,WeatherCatV1.02B3,2013-10-15 17:35:00,
2013-10-15 13:40:00,76.6,59.2,29.96,SW,225,1.0,6.0,55,0.00,,,0.00,WeatherCatV1.02B3,2013-10-15 17:40:00,
2013-10-15 13:45:00,76.6,59.2,29.96,SW,225,1.0,6.0,55,0.00,,,0.00,WeatherCatV1.02B3,2013-10-15 17:45:00,
2013-10-15 13:50:00,76.6,59.2,29.96,SW,225,1.0,6.0,55,0.00,,,0.00,WeatherCatV1.02B3,2013-10-15 17:50:00,
2013-10-15 13:55:00,76.6,59.2,29.96,SW,225,1.0,6.0,55,0.00,,,0.00,WeatherCatV1.02B3,2013-10-15 17:55:00,
2013-10-15 14:00:00,76.9,61.0,29.94,SSW,202,1.0,7.0,58,0.00,,,0.00,WeatherCatV1.02B3,2013-10-15 18:00:00,
2013-10-15 14:05:00,76.9,61.0,29.94,SSW,202,1.0,7.0,58,0.00,,,0.00,WeatherCatV1.02B3,2013-10-15 18:05:00,
2013-10-15 14:10:00,76.9,61.0,29.94,SSW,202,1.0,7.0,58,0.00,,,0.00,WeatherCatV1.02B3,2013-10-15 18:10:00,
2013-10-15 14:15:00,76.9,61.0,29.94,SSW,202,1.0,7.0,58,0.00,,,0.00,WeatherCatV1.02B3,2013-10-15 18:15:00,
2013-10-15 14:20:00,76.9,61.0,29.94,SSW,202,1.0,7.0,58,0.00,,,0.00,WeatherCatV1.02B3,2013-10-15 18:20:00,
2013-10-15 14:25:00,76.9,61.0,29.94,SSW,202,1.0,7.0,58,0.00,,,0.00,WeatherCatV1.02B3,2013-10-15 18:25:00,
2013-10-15 14:30:00,76.9,61.0,29.94,SSW,202,1.0,7.0,58,0.00,,,0.00,WeatherCatV1.02B3,2013-10-15 18:30:00,
2013-10-15 14:35:00,77.3,62.8,29.93,SSW,202,2.0,7.0,61,0.00,,,0.00,WeatherCatV1.02B3,2013-10-15 18:35:00,
2013-10-15 14:40:00,77.3,62.8,29.93,SSW,202,2.0,7.0,61,0.00,,,0.00,WeatherCatV1.02B3,2013-10-15 18:40:00,
2013-10-15 14:45:00,77.3,62.8,29.93,SSW,202,2.0,7.0,61,0.00,,,0.00,WeatherCatV1.02B3,2013-10-15 18:45:00,
2013-10-15 14:50:00,77.3,62.8,29.93,SSW,202,2.0,7.0,61,0.00,,,0.00,WeatherCatV1.02B3,2013-10-15 18:50:00,
2013-10-15 14:55:00,77.3,62.8,29.93,SSW,202,2.0,7.0,61,0.00,,,0.00,WeatherCatV1.02B3,2013-10-15 18:55:00,
2013-10-15 15:00:00,77.6,63.1,29.92,SW,225,3.0,7.0,61,0.00,,,0.00,WeatherCatV1.02B3,2013-10-15 19:00:00,
2013-10-15 15:05:00,77.6,63.1,29.92,SW,225,3.0,7.0,61,0.00,,,0.00,WeatherCatV1.02B3,2013-10-15 19:05:00,
2013-10-15 15:10:00,77.6,63.1,29.92,SW,225,3.0,7.0,61,0.00,,,0.00,WeatherCatV1.02B3,2013-10-15 19:10:00,
2013-10-15 15:15:00,77.6,63.1,29.92,SW,225,3.0,7.0,61,0.00,,,0.00,WeatherCatV1.02B3,2013-10-15 19:15:00,
2013-10-15 15:20:00,77.6,63.1,29.92,SW,225,3.0,7.0,61,0.00,,,0.00,WeatherCatV1.02B3,2013-10-15 19:20:00,
2013-10-15 15:25:00,77.6,63.1,29.92,SW,225,3.0,7.0,61,0.00,,,0.00,WeatherCatV1.02B3,2013-10-15 19:25:00,
2013-10-15 15:30:00,78.6,64.5,29.92,SW,225,3.0,8.0,62,0.00,,,0.00,WeatherCatV1.02B3,2013-10-15 19:30:00,
2013-10-15 15:35:00,78.6,64.5,29.92,SW,225,3.0,8.0,62,0.00,,,0.00,WeatherCatV1.02B3,2013-10-15 19:35:00,
2013-10-15 15:40:00,78.6,64.5,29.92,SW,225,3.0,8.0,62,0.00,,,0.00,WeatherCatV1.02B3,2013-10-15 19:40:00,
2013-10-15 15:45:00,78.6,64.5,29.92,SW,225,3.0,8.0,62,0.00,,,0.00,WeatherCatV1.02B3,2013-10-15 19:45:00,
2013-10-15 15:50:00,78.6,64.5,29.92,SW,225,3.0,8.0,62,0.00,,,0.00,WeatherCatV1.02B3,2013-10-15 19:50:00,
2013-10-15 15:55:00,78.6,64.5,29.92,SW,225,3.0,8.0,62,0.00,,,0.00,WeatherCatV1.02B3,2013-10-15 19:55:00,
2013-10-15 16:00:00,80.2,67.3,29.91,SW,225,3.0,12.0,65,0.00,,,0.00,WeatherCatV1.02B3,2013-10-15 20:00:00,
2013-10-15 16:05:00,80.2,67.3,29.91,SW,225,3.0,12.0,65,0.00,,,0.00,WeatherCatV1.02B3,2013-10-15 20:05:00,
2013-10-15 16:10:00,80.2,67.3,29.91,SW,225,3.0,12.0,65,0.00,,,0.00,WeatherCatV1.02B3,2013-10-15 20:10:00,
2013-10-15 16:15:00,80.2,67.3,29.91,SW,225,3.0,12.0,65,0.00,,,0.00,WeatherCatV1.02B3,2013-10-15 20:15:00,
2013-10-15 16:20:00,80.2,67.3,29.91,SW,225,3.0,12.0,65,0.00,,,0.00,WeatherCatV1.02B3,2013-10-15 20:20:00,
2013-10-15 16:25:00,80.2,67.3,29.91,SW,225,3.0,12.0,65,0.00,,,0.00,WeatherCatV1.02B3,2013-10-15 20:25:00,
2013-10-15 16:30:00,80.2,67.3,29.91,SW,225,3.0,12.0,65,0.00,,,0.00,WeatherCatV1.02B3,2013-10-15 20:30:00,
2013-10-15 16:35:00,81.5,69.9,29.91,WSW,248,3.0,11.0,68,0.00,,,0.00,WeatherCatV1.02B3,2013-10-15 20:35:00,
2013-10-15 16:40:00,81.5,69.9,29.91,WSW,248,3.0,11.0,68,0.00,,,0.00,WeatherCatV1.02B3,2013-10-15 20:40:00,
2013-10-15 16:45:00,81.5,69.9,29.91,WSW,248,3.0,11.0,68,0.00,,,0.00,WeatherCatV1.02B3,2013-10-15 20:45:00,
2013-10-15 16:50:00,81.5,69.9,29.91,WSW,248,3.0,11.0,68,0.00,,,0.00,WeatherCatV1.02B3,2013-10-15 20:50:00,
2013-10-15 16:55:00,81.5,69.9,29.91,WSW,248,3.0,11.0,68,0.00,,,0.00,WeatherCatV1.02B3,2013-10-15 20:55:00,
2013-10-15 17:00:00,80.9,69.3,29.90,WSW,248,4.0,11.0,68,0.00,,,0.00,WeatherCatV1.02B3,2013-10-15 21:00:00,
2013-10-15 17:05:00,80.9,69.3,29.90,WSW,248,4.0,11.0,68,0.00,,,0.00,WeatherCatV1.02B3,2013-10-15 21:05:00,
2013-10-15 17:10:00,80.9,69.3,29.90,WSW,248,4.0,11.0,68,0.00,,,0.00,WeatherCatV1.02B3,2013-10-15 21:10:00,
2013-10-15 17:15:00,80.9,69.3,29.90,WSW,248,4.0,11.0,68,0.00,,,0.00,WeatherCatV1.02B3,2013-10-15 21:15:00,
2013-10-15 17:20:00,80.9,69.3,29.90,WSW,248,4.0,11.0,68,0.00,,,0.00,WeatherCatV1.02B3,2013-10-15 21:20:00,
2013-10-15 17:25:00,80.9,69.3,29.90,WSW,248,4.0,11.0,68,0.00,,,0.00,WeatherCatV1.02B3,2013-10-15 21:25:00,
2013-10-15 17:30:00,79.5,67.1,29.91,SW,225,4.0,10.0,66,0.00,,,0.00,WeatherCatV1.02B3,2013-10-15 21:30:00,
2013-10-15 17:35:00,79.5,67.1,29.91,SW,225,4.0,10.0,66,0.00,,,0.00,WeatherCatV1.02B3,2013-10-15 21:35:00,
2013-10-15 17:40:00,79.5,67.1,29.91,SW,225,4.0,10.0,66,0.00,,,0.00,WeatherCatV1.02B3,2013-10-15 21:40:00,
2013-10-15 17:45:00,79.5,67.1,29.91,SW,225,4.0,10.0,66,0.00,,,0.00,WeatherCatV1.02B3,2013-10-15 21:45:00,
2013-10-15 17:50:00,79.5,67.1,29.91,SW,225,4.0,10.0,66,0.00,,,0.00,WeatherCatV1.02B3,2013-10-15 21:50:00,
2013-10-15 17:55:00,79.5,67.1,29.91,SW,225,4.0,10.0,66,0.00,,,0.00,WeatherCatV1.02B3,2013-10-15 21:55:00,
2013-10-15 18:00:00,79.5,67.1,29.91,SW,225,4.0,10.0,66,0.00,,,0.00,WeatherCatV1.02B3,2013-10-15 22:00:00,
2013-10-15 18:05:00,78.5,66.2,29.92,SW,225,3.0,9.0,66,0.00,,,0.00,WeatherCatV1.02B3,2013-10-15 22:05:00,
2013-10-15 18:10:00,78.5,66.2,29.92,SW,225,3.0,9.0,66,0.00,,,0.00,WeatherCatV1.02B3,2013-10-15 22:10:00,
2013-10-15 18:15:00,78.5,66.2,29.92,SW,225,3.0,9.0,66,0.00,,,0.00,WeatherCatV1.02B3,2013-10-15 22:15:00,
2013-10-15 18:20:00,78.5,66.2,29.92,SW,225,3.0,9.0,66,0.00,,,0.00,WeatherCatV1.02B3,2013-10-15 22:20:00,
2013-10-15 18:25:00,78.5,66.2,29.92,SW,225,3.0,9.0,66,0.00,,,0.00,WeatherCatV1.02B3,2013-10-15 22:25:00,
2013-10-15 18:30:00,77.7,64.1,29.92,WSW,239,3.0,6.0,63,0.00,,,0.00,WeatherCatV1.02B3,2013-10-15 22:30:00,
2013-10-15 18:35:00,77.6,63.5,29.92,SW,236,2.0,4.0,62,0.00,,,0.00,WeatherCatV1.02B3,2013-10-15 22:35:00,
2013-10-15 18:40:00,77.5,63.0,29.92,SW,235,2.0,6.0,61,0.00,,,0.00,WeatherCatV1.02B3,2013-10-15 22:40:00,
2013-10-15 18:45:00,77.4,61.9,29.92,SW,234,2.0,4.0,59,0.00,,,0.00,WeatherCatV1.02B3,2013-10-15 22:45:00,
2013-10-15 18:50:00,77.2,61.3,29.92,SW,234,1.0,0.0,58,0.00,,,0.00,WeatherCatV1.02B3,2013-10-15 22:50:00,
2013-10-15 18:55:00,76.9,61.5,29.92,SW,234,1.0,6.0,59,0.00,,,0.00,WeatherCatV1.02B3,2013-10-15 22:55:00,
2013-10-15 19:00:00,76.8,61.4,29.92,SW,234,1.0,3.0,59,0.00,,,0.00,WeatherCatV1.02B3,2013-10-15 23:00:00,
2013-10-15 19:05:00,76.7,60.8,29.93,SW,234,1.0,6.0,58,0.00,,,0.00,WeatherCatV1.02B3,2013-10-15 23:05:00,
2013-10-15 19:10:00,76.5,60.1,29.93,SW,234,2.0,2.0,57,0.00,,,0.00,WeatherCatV1.02B3,2013-10-15 23:10:00,
2013-10-15 19:15:00,76.3,59.9,29.93,SW,234,2.0,7.0,57,0.00,,,0.00,WeatherCatV1.02B3,2013-10-15 23:15:00,
2013-10-15 19:20:00,76.2,59.8,29.93,SW,234,3.0,7.0,57,0.00,,,0.00,WeatherCatV1.02B3,2013-10-15 23:20:00,
2013-10-15 19:25:00,76.2,59.8,29.93,SW,234,3.0,6.0,57,0.00,,,0.00,WeatherCatV1.02B3,2013-10-15 23:25:00,
2013-10-15 19:30:00,76.0,59.2,29.93,SW,234,2.0,4.0,56,0.00,,,0.00,WeatherCatV1.02B3,2013-10-15 23:30:00,
2013-10-15 19:35:00,76.0,59.2,29.93,SW,234,2.0,5.0,56,0.00,,,0.00,WeatherCatV1.02B3,2013-10-15 23:35:00,
2013-10-15 19:40:00,75.9,58.6,29.93,SW,235,2.0,6.0,55,0.00,,,0.00,WeatherCatV1.02B3,2013-10-15 23:40:00,
2013-10-15 19:45:00,75.8,57.9,29.93,SW,235,3.0,7.0,54,0.00,,,0.00,WeatherCatV1.02B3,2013-10-15 23:45:00,
2013-10-15 19:50:00,75.7,57.3,29.94,SW,235,3.0,5.0,53,0.00,,,0.00,WeatherCatV1.02B3,2013-10-15 23:50:00,
2013-10-15 19:55:00,75.6,56.7,29.94,SW,235,2.0,5.0,52,0.00,,,0.00,WeatherCatV1.02B3,2013-10-15 23:55:00,
2013-10-15 20:00:00,75.5,56.6,29.94,SW,235,1.0,4.0,52,0.00,,,0.00,WeatherCatV1.02B3,2013-10-16 00:00:00,
2013-10-15 20:14:00,75.4,56.0,29.94,SW,235,2.0,7.0,51,0.00,,,0.00,WeatherCatV1.02B3,2013-10-16 00:14:00,
2013-10-15 20:19:00,75.2,54.7,29.95,SW,235,0.0,1.0,49,0.00,,,0.00,WeatherCatV1.02B3,2013-10-16 00:19:00,
2013-10-15 20:24:00,75.1,54.6,29.95,SW,235,0.0,3.0,49,0.00,,,0.00,WeatherCatV1.02B3,2013-10-16 00:24:00,
2013-10-15 20:29:00,75.0,54.5,29.94,SW,235,0.0,2.0,49,0.00,,,0.00,WeatherCatV1.02B3,2013-10-16 00:29:00,
2013-10-15 20:34:00,74.9,53.9,29.95,SW,235,0.0,4.0,48,0.00,,,0.00,WeatherCatV1.02B3,2013-10-16 00:34:00,
2013-10-15 20:39:00,74.8,53.8,29.95,SW,235,2.0,4.0,48,0.00,,,0.00,WeatherCatV1.02B3,2013-10-16 00:39:00,
2013-10-15 20:44:00,74.8,53.8,29.95,SW,235,0.0,5.0,48,0.00,,,0.00,WeatherCatV1.02B3,2013-10-16 00:44:00,
2013-10-15 20:49:00,74.7,53.1,29.95,SW,235,2.0,3.0,47,0.00,,,0.00,WeatherCatV1.02B3,2013-10-16 00:49:00,
2013-10-15 20:54:00,74.6,53.0,29.95,SW,235,0.0,3.0,47,0.00,,,0.00,WeatherCatV1.02B3,2013-10-16 00:54:00,
2013-10-15 20:59:00,74.6,53.0,29.96,SW,235,1.0,1.0,47,0.00,,,0.00,WeatherCatV1.02B3,2013-10-16 00:59:00,
2013-10-15 21:04:00,74.5,52.3,29.96,SW,235,0.0,0.0,46,0.00,,,0.00,WeatherCatV1.02B3,2013-10-16 01:04:00,
2013-10-15 21:09:00,74.4,52.3,29.96,SW,235,3.0,6.0,46,0.00,,,0.00,WeatherCatV1.02B3,2013-10-16 01:09:00,
2013-10-15 21:14:00,74.4,51.7,29.96,SW,235,0.0,0.0,45,0.00,,,0.00,WeatherCatV1.02B3,2013-10-16 01:14:00,
2013-10-15 21:19:00,74.4,51.7,29.96,SW,235,0.0,4.0,45,0.00,,,0.00,WeatherCatV1.02B3,2013-10-16 01:19:00,
2013-10-15 21:24:00,74.3,51.0,29.96,SW,235,0.0,0.0,44,0.00,,,0.00,WeatherCatV1.02B3,2013-10-16 01:24:00,
2013-10-15 21:29:00,74.3,51.0,29.96,SW,235,0.0,4.0,44,0.00,,,0.00,WeatherCatV1.02B3,2013-10-16 01:29:00,
2013-10-15 21:34:00,74.2,50.9,29.96,SW,235,0.0,0.0,44,0.00,,,0.00,WeatherCatV1.02B3,2013-10-16 01:34:00,
2013-10-15 21:39:00,74.2,50.2,29.96,SW,235,3.0,3.0,43,0.00,,,0.00,WeatherCatV1.02B3,2013-10-16 01:39:00,
2013-10-15 21:44:00,74.2,50.2,29.97,SW,235,0.0,0.0,43,0.00,,,0.00,WeatherCatV1.02B3,2013-10-16 01:44:00,
2013-10-15 21:49:00,74.2,50.2,29.97,SW,235,0.0,0.0,43,0.00,,,0.00,WeatherCatV1.02B3,2013-10-16 01:49:00,
2013-10-15 21:54:00,74.1,50.2,29.97,SW,235,0.0,2.0,43,0.00,,,0.00,WeatherCatV1.02B3,2013-10-16 01:54:00,
2013-10-15 21:59:00,74.1,49.5,29.97,SW,235,0.0,0.0,42,0.00,,,0.00,WeatherCatV1.02B3,2013-10-16 01:59:00,
2013-10-15 22:04:00,74.1,49.5,29.97,SW,235,0.0,0.0,42,0.00,,,0.00,WeatherCatV1.02B3,2013-10-16 02:04:00,
2013-10-15 22:09:00,74.1,49.5,29.97,SW,235,0.0,0.0,42,0.00,,,0.00,WeatherCatV1.02B3,2013-10-16 02:09:00,
2013-10-15 22:14:00,74.1,49.5,29.97,SW,235,0.0,5.0,42,0.00,,,0.00,WeatherCatV1.02B3,2013-10-16 02:14:00,
2013-10-15 22:19:00,74.0,49.4,29.97,SW,235,2.0,2.0,42,0.00,,,0.00,WeatherCatV1.02B3,2013-10-16 02:19:00,
2013-10-15 22:24:00,74.0,49.4,29.97,SW,235,0.0,1.0,42,0.00,,,0.00,WeatherCatV1.02B3,2013-10-16 02:24:00,
2013-10-15 22:29:00,74.0,49.4,29.97,SW,235,0.0,2.0,42,0.00,,,0.00,WeatherCatV1.02B3,2013-10-16 02:29:00,
2013-10-15 22:34:00,74.0,49.4,29.97,SW,235,0.0,2.0,42,0.00,,,0.00,WeatherCatV1.02B3,2013-10-16 02:34:00,
2013-10-15 22:39:00,73.9,49.3,29.97,SW,235,0.0,0.0,42,0.00,,,0.00,WeatherCatV1.02B3,2013-10-16 02:39:00,
2013-10-15 22:44:00,73.8,49.3,29.97,SW,235,0.0,0.0,42,0.00,,,0.00,WeatherCatV1.02B3,2013-10-16 02:44:00,
2013-10-15 22:49:00,73.8,49.3,29.96,SW,235,0.0,0.0,42,0.00,,,0.00,WeatherCatV1.02B3,2013-10-16 02:49:00,
2013-10-15 22:54:00,73.7,49.2,29.97,SW,235,0.0,0.0,42,0.00,,,0.00,WeatherCatV1.02B3,2013-10-16 02:54:00,
2013-10-15 22:59:00,73.5,49.6,29.97,SW,235,0.0,1.0,43,0.00,,,0.00,WeatherCatV1.02B3,2013-10-16 02:59:00,
2013-10-15 23:04:00,73.5,49.6,29.97,SW,235,0.0,0.0,43,0.00,,,0.00,WeatherCatV1.02B3,2013-10-16 03:04:00,
2013-10-15 23:09:00,73.4,49.5,29.97,SW,235,2.0,4.0,43,0.00,,,0.00,WeatherCatV1.02B3,2013-10-16 03:09:00,
2013-10-15 23:14:00,73.4,48.9,29.97,SW,235,0.0,6.0,42,0.00,,,0.00,WeatherCatV1.02B3,2013-10-16 03:14:00,
2013-10-15 23:19:00,73.4,48.9,29.97,SW,235,3.0,6.0,42,0.00,,,0.00,WeatherCatV1.02B3,2013-10-16 03:19:00,
2013-10-15 23:24:00,73.4,48.3,29.97,SW,235,0.0,3.0,41,0.00,,,0.00,WeatherCatV1.02B3,2013-10-16 03:24:00,
2013-10-15 23:29:00,73.4,48.3,29.96,SW,235,0.0,0.0,41,0.00,,,0.00,WeatherCatV1.02B3,2013-10-16 03:29:00,
2013-10-15 23:34:00,73.5,47.7,29.96,SW,235,0.0,3.0,40,0.00,,,0.00,WeatherCatV1.02B3,2013-10-16 03:34:00,
2013-10-15 23:39:00,73.6,47.8,29.96,WSW,242,4.0,6.0,40,0.00,,,0.00,WeatherCatV1.02B3,2013-10-16 03:39:00,
2013-10-15 23:44:00,73.7,47.9,29.96,WSW,248,0.0,0.0,40,0.00,,,0.00,WeatherCatV1.02B3,2013-10-16 03:44:00,
2013-10-15 23:49:00,73.8,47.3,29.96,WSW,248,1.0,5.0,39,0.00,,,0.00,WeatherCatV1.02B3,2013-10-16 03:49:00,
2013-10-15 23:54:00,73.8,47.3,29.96,West,267,2.0,7.0,39,0.00,,,0.00,WeatherCatV1.02B3,2013-10-16 03:54:00,
2013-10-15 23:59:00,73.8,47.3,29.96,West,267,0.0,0.0,39,0.00,,,0.00,WeatherCatV1.02B3,2013-10-16 03:59:00,